| time (UTC) | temp F | wind direction | speed knots | gust knots | rain 1hr in | rain 24hr in | rain mn in | humidity % | barometer mb |
| 20260506191029 | 84 | 89 | 7.0 | 11.3 | 0.00 | 0.00 | 0.00 | 78 | 1008.3 |
| 20260506190532 | 84 | 130 | 4.3 | 11.3 | 0.00 | 0.00 | 0.00 | 79 | 1008.3 |
| 20260506190028 | 84 | 145 | 4.3 | 9.6 | 0.00 | 0.00 | 0.00 | 79 | 1008.5 |
| 20260506185528 | 83 | 133 | 2.6 | 7.0 | 0.00 | 0.00 | 0.00 | 81 | 1008.5 |
| 20260506185028 | 82 | 130 | 1.7 | 7.8 | 0.00 | 0.00 | 0.00 | 81 | 1008.6 |
| 20260506184528 | 83 | 200 | 3.5 | 7.8 | 0.00 | 0.00 | 0.00 | 81 | 1008.5 |
| 20260506184030 | 83 | 164 | 1.7 | 7.8 | 0.00 | 0.00 | 0.00 | 80 | 1008.6 |
| 20260506183527 | 83 | 175 | 2.6 | 11.3 | 0.00 | 0.00 | 0.00 | 80 | 1008.6 |
| 20260506183027 | 83 | 187 | 5.2 | 11.3 | 0.00 | 0.00 | 0.00 | 79 | 1008.6 |
| 20260506182527 | 84 | 174 | 1.7 | 6.1 | 0.00 | 0.00 | 0.00 | 78 | 1008.6 |
| 20260506182027 | 84 | 117 | 0.9 | 7.8 | 0.00 | 0.00 | 0.00 | 78 | 1008.6 |
| 20260506181528 | 85 | 155 | 2.6 | 7.8 | 0.00 | 0.00 | 0.00 | 77 | 1008.6 |
| 20260506181027 | 85 | 176 | 2.6 | 8.7 | 0.00 | 0.00 | 0.00 | 76 | 1008.6 |
| 20260506180527 | 86 | 201 | 0.0 | 3.5 | 0.00 | 0.00 | 0.00 | 74 | 1008.7 |
| 20260506180026 | 86 | 229 | 1.7 | 3.5 | 0.00 | 0.00 | 0.00 | 73 | 1008.6 |
| 20260506175525 | 87 | 196 | 0.0 | 5.2 | 0.00 | 0.00 | 0.00 | 73 | 1008.6 |
| 20260506175028 | 87 | 191 | 0.9 | 6.1 | 0.00 | 0.00 | 0.00 | 73 | 1008.6 |
| 20260506174525 | 87 | 202 | 2.6 | 6.1 | 0.00 | 0.00 | 0.00 | 72 | 1008.6 |
| 20260506174024 | 87 | 249 | 1.7 | 3.5 | 0.00 | 0.00 | 0.00 | 73 | 1008.4 |
| 20260506173523 | 86 | 242 | 0.0 | 3.5 | 0.00 | 0.00 | 0.00 | 75 | 1008.5 |
| 20260506173022 | 86 | 210 | 0.9 | 4.3 | 0.00 | 0.00 | 0.00 | 76 | 1008.5 |
| 20260506172520 | 85 | 164 | 1.7 | 5.2 | 0.00 | 0.00 | 0.00 | 77 | 1008.5 |
| 20260506172019 | 85 | 136 | 0.9 | 6.1 | 0.00 | 0.00 | 0.00 | 78 | 1008.7 |
| 20260506171521 | 84 | 172 | 3.5 | 6.1 | 0.00 | 0.00 | 0.00 | 79 | 1008.8 |
| 20260506171017 | 84 | 218 | 0.9 | 4.3 | 0.00 | 0.00 | 0.00 | 81 | 1008.6 |
| 20260506170515 | 83 | 188 | 1.7 | 5.2 | 0.00 | 0.00 | 0.00 | 83 | 1008.6 |
| 20260506170017 | 82 | 180 | 1.7 | 5.2 | 0.00 | 0.00 | 0.00 | 83 | 1008.6 |
| 20260506165515 | 82 | 222 | 0.9 | 3.5 | 0.00 | 0.00 | 0.00 | 84 | 1008.7 |
| 20260506165011 | 81 | 192 | 0.9 | 7.0 | 0.00 | 0.00 | 0.00 | 86 | 1008.8 |
| 20260506164510 | 81 | 196 | 1.7 | 7.0 | 0.00 | 0.00 | 0.00 | 87 | 1008.8 |
| 20260506164009 | 81 | 200 | 0.9 | 3.5 | 0.00 | 0.00 | 0.00 | 87 | 1008.8 |
| 20260506163507 | 80 | 192 | 0.9 | 4.3 | 0.00 | 0.00 | 0.00 | 87 | 1008.9 |
| 20260506163012 | 79 | 185 | 0.9 | 4.3 | 0.00 | 0.00 | 0.00 | 88 | 1008.8 |
| 20260506162507 | 79 | 195 | 1.7 | 5.2 | 0.00 | 0.00 | 0.00 | 89 | 1008.7 |
| 20260506162005 | 79 | 209 | 1.7 | 5.2 | 0.00 | 0.00 | 0.00 | 89 | 1008.7 |
| 20260506161504 | 79 | 180 | 1.7 | 5.2 | 0.00 | 0.00 | 0.00 | 89 | 1008.8 |
| 20260506161004 | 79 | 225 | 0.0 | 5.2 | 0.00 | 0.00 | 0.00 | 90 | 1008.7 |
| 20260506160506 | 79 | 202 | 2.6 | 7.0 | 0.00 | 0.00 | 0.00 | 89 | 1008.6 |
| 20260506160007 | 79 | 248 | 1.7 | 6.1 | 0.00 | 0.00 | 0.00 | 89 | 1008.5 |
| 20260506155502 | 79 | 217 | 1.7 | 7.8 | 0.00 | 0.00 | 0.00 | 89 | 1008.5 |
| 20260506155001 | 79 | 163 | 1.7 | 8.7 | 0.00 | 0.00 | 0.00 | 89 | 1008.3 |
| 20260506154628 | 79 | 192 | 1.7 | 7.0 | 0.00 | 0.00 | 0.00 | 89 | 1008.2 |
| 20260506154102 | 79 | 182 | 3.5 | 8.7 | 0.00 | 0.00 | 0.00 | 88 | 1008.1 |
| 20260506153601 | 79 | 199 | 1.7 | 8.7 | 0.00 | 0.00 | 0.00 | 88 | 1008.0 |
| 20260506153110 | 79 | 202 | 1.7 | 6.1 | 0.00 | 0.00 | 0.00 | 89 | 1008.0 |
| 20260506152559 | 79 | 175 | 1.7 | 6.1 | 0.00 | 0.00 | 0.00 | 89 | 1008.0 |
| 20260506152100 | 79 | 176 | 0.9 | 7.8 | 0.00 | 0.00 | 0.00 | 89 | 1008.0 |
| 20260506151600 | 79 | 146 | 1.7 | 7.0 | 0.00 | 0.00 | 0.00 | 89 | 1007.9 |
| 20260506151058 | 79 | 189 | 2.6 | 7.0 | 0.00 | 0.00 | 0.00 | 89 | 1007.9 |
| 20260506150558 | 79 | 133 | 1.7 | 6.1 | 0.00 | 0.00 | 0.00 | 89 | 1008.1 |
| 20260506145558 | 79 | 172 | 0.9 | 6.1 | 0.00 | 0.00 | 0.00 | 89 | 1008.2 |
| 20260506145057 | 79 | 233 | 1.7 | 7.8 | 0.00 | 0.00 | 0.00 | 89 | 1007.9 |
| 20260506144557 | 79 | 192 | 2.6 | 7.8 | 0.00 | 0.00 | 0.00 | 88 | 1007.9 |
| 20260506144056 | 79 | 183 | 1.7 | 6.1 | 0.00 | 0.00 | 0.00 | 88 | 1007.9 |
| 20260506143556 | 79 | 194 | 2.6 | 6.1 | 0.00 | 0.00 | 0.00 | 88 | 1007.9 |
| 20260506143105 | 79 | 188 | 1.7 | 6.1 | 0.00 | 0.00 | 0.00 | 88 | 1007.9 |
| 20260506142556 | 79 | 206 | 1.7 | 6.1 | 0.00 | 0.00 | 0.00 | 88 | 1008.0 |
| 20260506142055 | 79 | 186 | 1.7 | 6.1 | 0.00 | 0.00 | 0.00 | 88 | 1008.0 |
| 20260506141555 | 79 | 213 | 1.7 | 4.3 | 0.00 | 0.00 | 0.00 | 88 | 1008.0 |
| 20260506141057 | 79 | 179 | 1.7 | 7.8 | 0.00 | 0.00 | 0.00 | 87 | 1008.0 |
| 20260506140555 | 79 | 165 | 1.7 | 7.8 | 0.00 | 0.00 | 0.00 | 87 | 1008.0 |
| 20260506140058 | 79 | 121 | 0.9 | 8.7 | 0.00 | 0.00 | 0.00 | 87 | 1007.9 |
| 20260506135555 | 79 | 185 | 1.7 | 6.1 | 0.00 | 0.00 | 0.00 | 87 | 1007.9 |
| 20260506135052 | 79 | 167 | 1.7 | 7.0 | 0.00 | 0.00 | 0.00 | 87 | 1008.0 |
| 20260506134553 | 79 | 167 | 2.6 | 7.0 | 0.00 | 0.00 | 0.00 | 87 | 1007.8 |
| 20260506134052 | 79 | 142 | 1.7 | 6.1 | 0.00 | 0.00 | 0.00 | 88 | 1007.8 |
| 20260506133552 | 79 | 222 | 1.7 | 6.1 | 0.00 | 0.00 | 0.00 | 88 | 1007.8 |
| 20260506133051 | 79 | 190 | 0.9 | 4.3 | 0.00 | 0.00 | 0.00 | 88 | 1007.8 |
| 20260506132550 | 78 | 153 | 0.9 | 5.2 | 0.00 | 0.00 | 0.00 | 88 | 1007.9 |
| 20260506132054 | 78 | 173 | 0.9 | 5.2 | 0.00 | 0.00 | 0.00 | 88 | 1007.9 |
| 20260506131650 | 78 | 172 | 0.9 | 5.2 | 0.00 | 0.00 | 0.00 | 88 | 1008.0 |
| 20260506131050 | 78 | 198 | 1.7 | 6.1 | 0.00 | 0.00 | 0.00 | 88 | 1007.8 |
| 20260506130552 | 78 | 188 | 1.7 | 8.7 | 0.00 | 0.00 | 0.00 | 89 | 1007.7 |
| 20260506130050 | 78 | 166 | 2.6 | 8.7 | 0.00 | 0.00 | 0.00 | 89 | 1007.7 |
| 20260506125552 | 78 | 158 | 1.7 | 7.8 | 0.00 | 0.00 | 0.00 | 89 | 1007.7 |
| 20260506125052 | 78 | 159 | 0.9 | 7.8 | 0.00 | 0.00 | 0.00 | 89 | 1007.6 |
| 20260506124549 | 78 | 123 | 1.7 | 5.2 | 0.00 | 0.00 | 0.00 | 89 | 1007.6 |
| 20260506124052 | 78 | 180 | 0.9 | 6.1 | 0.00 | 0.00 | 0.00 | 89 | 1007.5 |
| 20260506123552 | 78 | 199 | 0.9 | 4.3 | 0.00 | 0.00 | 0.00 | 89 | 1007.6 |
| 20260506123049 | 78 | 140 | 0.9 | 3.5 | 0.00 | 0.00 | 0.00 | 89 | 1007.5 |
| 20260506122548 | 78 | 150 | 0.9 | 6.1 | 0.00 | 0.00 | 0.00 | 89 | 1007.5 |
| 20260506122047 | 78 | 150 | 2.6 | 6.1 | 0.00 | 0.00 | 0.00 | 88 | 1007.4 |
| 20260506121547 | 78 | 130 | 2.6 | 6.1 | 0.00 | 0.00 | 0.00 | 88 | 1007.5 |
| 20260506121047 | 78 | 139 | 1.7 | 6.1 | 0.00 | 0.00 | 0.00 | 88 | 1007.5 |
| 20260506120547 | 78 | 146 | 0.9 | 3.5 | 0.00 | 0.00 | 0.00 | 88 | 1007.4 |
| 20260506120056 | 78 | 146 | 1.7 | 3.5 | 0.00 | 0.00 | 0.00 | 88 | 1007.3 |
| 20260506115548 | 78 | 173 | 0.9 | 2.6 | 0.00 | 0.00 | 0.00 | 88 | 1007.3 |
| 20260506115047 | 78 | 173 | 0.0 | 3.5 | 0.00 | 0.00 | 0.00 | 88 | 1007.3 |
| 20260506114555 | 78 | 175 | 0.9 | 5.2 | 0.00 | 0.00 | 0.00 | 88 | 1007.3 |
| 20260506114049 | 78 | 173 | 0.9 | 5.2 | 0.00 | 0.00 | 0.00 | 88 | 1007.4 |
| 20260506113549 | 78 | 227 | 0.0 | 5.2 | 0.00 | 0.00 | 0.00 | 88 | 1007.2 |
| 20260506113046 | 78 | 227 | 1.7 | 5.2 | 0.00 | 0.00 | 0.00 | 88 | 1007.1 |
| 20260506112546 | 78 | 159 | 0.9 | 4.3 | 0.00 | 0.00 | 0.00 | 88 | 1007.1 |
| 20260506112048 | 78 | 159 | 0.9 | 5.2 | 0.00 | 0.00 | 0.00 | 88 | 1007.1 |
| 20260506111545 | 78 | 153 | 1.7 | 5.2 | 0.00 | 0.00 | 0.00 | 88 | 1007.1 |
| 20260506111045 | 78 | 157 | 0.9 | 4.3 | 0.00 | 0.00 | 0.00 | 88 | 1007.1 |
| 20260506110545 | 78 | 147 | 1.7 | 5.2 | 0.00 | 0.00 | 0.00 | 88 | 1007.1 |
| 20260506110054 | 78 | 147 | 0.9 | 3.5 | 0.00 | 0.00 | 0.00 | 88 | 1007.2 |
| 20260506105545 | 78 | 178 | 0.9 | 3.5 | 0.00 | 0.00 | 0.00 | 88 | 1007.1 |
| 20260506105044 | 78 | 180 | 0.9 | 2.6 | 0.00 | 0.00 | 0.00 | 88 | 1007.1 |
| 20260506104544 | 78 | 180 | 0.9 | 2.6 | 0.00 | 0.00 | 0.00 | 88 | 1007.1 |
| 20260506104145 | 78 | 180 | 0.9 | 3.5 | 0.00 | 0.00 | 0.00 | 88 | 1007.0 |
| 20260506103543 | 78 | 180 | 0.9 | 5.2 | 0.00 | 0.00 | 0.00 | 88 | 1007.0 |
| 20260506103043 | 78 | 111 | 0.9 | 5.2 | 0.00 | 0.00 | 0.00 | 88 | 1007.2 |
| 20260506102543 | 78 | 171 | 0.9 | 5.2 | 0.00 | 0.00 | 0.00 | 88 | 1007.2 |
| 20260506102044 | 78 | 132 | 0.9 | 3.5 | 0.00 | 0.00 | 0.00 | 88 | 1007.1 |
| 20260506101544 | 78 | 178 | 0.9 | 4.3 | 0.00 | 0.00 | 0.00 | 88 | 1007.0 |
| 20260506101047 | 78 | 123 | 2.6 | 4.3 | 0.00 | 0.00 | 0.00 | 88 | 1006.9 |
| 20260506100543 | 78 | 126 | 0.0 | 2.6 | 0.00 | 0.00 | 0.00 | 88 | 1006.9 |
| 20260506100046 | 78 | 182 | 0.9 | 5.2 | 0.00 | 0.00 | 0.00 | 88 | 1006.9 |
| 20260506095545 | 78 | 161 | 1.7 | 5.2 | 0.00 | 0.00 | 0.00 | 88 | 1006.9 |
| 20260506095042 | 78 | 175 | 1.7 | 5.2 | 0.00 | 0.00 | 0.00 | 88 | 1006.9 |
| 20260506094601 | 78 | 155 | 1.7 | 6.1 | 0.00 | 0.00 | 0.00 | 88 | 1006.8 |
| 20260506094042 | 78 | 159 | 1.7 | 6.1 | 0.00 | 0.00 | 0.00 | 88 | 1006.8 |
| 20260506093541 | 78 | 144 | 0.9 | 4.3 | 0.00 | 0.00 | 0.00 | 87 | 1006.9 |
| 20260506093044 | 78 | 188 | 0.9 | 3.5 | 0.00 | 0.00 | 0.00 | 87 | 1006.8 |
| 20260506092542 | 78 | 189 | 0.0 | 3.5 | 0.00 | 0.00 | 0.00 | 87 | 1006.9 |
| 20260506092041 | 78 | 189 | 0.9 | 5.2 | 0.00 | 0.00 | 0.00 | 87 | 1006.9 |
| 20260506091541 | 78 | 202 | 1.7 | 5.2 | 0.00 | 0.00 | 0.00 | 87 | 1006.7 |
| 20260506091040 | 78 | 161 | 2.6 | 6.1 | 0.00 | 0.00 | 0.00 | 87 | 1006.6 |
| 20260506090541 | 78 | 203 | 2.6 | 7.0 | 0.00 | 0.00 | 0.00 | 87 | 1006.6 |
| 20260506090041 | 78 | 232 | 1.7 | 6.1 | 0.00 | 0.00 | 0.00 | 87 | 1006.6 |
| 20260506085540 | 78 | 96 | 0.9 | 5.2 | 0.00 | 0.00 | 0.00 | 87 | 1006.6 |
| 20260506085040 | 78 | 126 | 1.7 | 7.8 | 0.00 | 0.00 | 0.00 | 87 | 1006.6 |
| 20260506084540 | 78 | 96 | 1.7 | 7.8 | 0.00 | 0.00 | 0.00 | 87 | 1006.6 |
| 20260506084044 | 78 | 217 | 2.6 | 8.7 | 0.00 | 0.00 | 0.00 | 87 | 1006.7 |
| 20260506083540 | 78 | 138 | 2.6 | 8.7 | 0.00 | 0.00 | 0.00 | 87 | 1006.5 |
| 20260506083040 | 78 | 165 | 3.5 | 8.7 | 0.00 | 0.00 | 0.00 | 87 | 1006.6 |
| 20260506082543 | 78 | 195 | 0.9 | 5.2 | 0.00 | 0.00 | 0.00 | 87 | 1006.6 |
| 20260506082039 | 78 | 202 | 1.7 | 7.8 | 0.00 | 0.00 | 0.00 | 87 | 1006.5 |
| 20260506081539 | 78 | 221 | 0.9 | 7.8 | 0.00 | 0.00 | 0.00 | 87 | 1006.5 |
| 20260506081038 | 78 | 156 | 2.6 | 7.8 | 0.00 | 0.00 | 0.00 | 87 | 1006.5 |
| 20260506080538 | 78 | 207 | 1.7 | 6.1 | 0.00 | 0.00 | 0.00 | 87 | 1006.5 |
| 20260506073040 | 78 | 209 | 2.6 | 12.2 | 0.00 | 0.00 | 0.00 | 85 | 1006.6 |
| 20260506072532 | 78 | 191 | 1.7 | 12.2 | 0.00 | 0.00 | 0.00 | 85 | 1006.8 |
| 20260506072034 | 78 | 155 | 2.6 | 7.0 | 0.00 | 0.00 | 0.00 | 85 | 1006.9 |
| 20260506071534 | 78 | 188 | 2.6 | 7.0 | 0.00 | 0.00 | 0.00 | 86 | 1007.0 |
| 20260506071030 | 78 | 192 | 1.7 | 6.1 | 0.00 | 0.00 | 0.00 | 86 | 1007.1 |
| 20260506070529 | 78 | 190 | 2.6 | 8.7 | 0.00 | 0.00 | 0.00 | 85 | 1007.2 |
| 20260506062024 | 78 | 171 | 2.6 | 7.8 | 0.00 | 0.00 | 0.00 | 85 | 1007.7 |
| 20260506061531 | 78 | 208 | 1.7 | 7.8 | 0.00 | 0.00 | 0.00 | 86 | 1007.6 |
| 20260506061026 | 78 | 223 | 3.5 | 7.8 | 0.00 | 0.00 | 0.00 | 86 | 1007.6 |
| 20260506060522 | 78 | 167 | 1.7 | 7.0 | 0.00 | 0.00 | 0.00 | 87 | 1007.6 |
| 20260506051017 | 78 | 184 | 1.7 | 7.0 | 0.00 | 0.00 | 0.00 | 86 | 1007.9 |
| 20260506050518 | 78 | 207 | 2.6 | 9.6 | 0.00 | 0.00 | 0.00 | 86 | 1007.9 |
| 20260506045015 | 78 | 177 | 2.6 | 10.4 | 0.00 | 0.00 | 0.00 | 86 | 1007.7 |
| 20260506044515 | 78 | 170 | 4.3 | 13.0 | 0.00 | 0.00 | 0.00 | 86 | 1007.9 |
| 20260506044018 | 78 | 216 | 3.5 | 13.0 | 0.00 | 0.00 | 0.00 | 86 | 1007.9 |
| 20260506043514 | 78 | 194 | 2.6 | 13.9 | 0.00 | 0.00 | 0.00 | 86 | 1007.7 |
| 20260506043014 | 78 | 199 | 4.3 | 13.9 | 0.00 | 0.00 | 0.00 | 86 | 1007.7 |
| 20260506042516 | 78 | 254 | 3.5 | 9.6 | 0.00 | 0.00 | 0.00 | 86 | 1007.6 |
| 20260506042018 | 78 | 155 | 3.5 | 9.6 | 0.00 | 0.00 | 0.00 | 86 | 1007.8 |
| 20260506041517 | 78 | 166 | 2.6 | 5.2 | 0.00 | 0.00 | 0.00 | 86 | 1007.7 |
| 20260506041013 | 78 | 179 | 1.7 | 7.0 | 0.00 | 0.00 | 0.00 | 87 | 1007.7 |
| 20260506040513 | 78 | 188 | 2.6 | 9.6 | 0.00 | 0.00 | 0.00 | 87 | 1007.6 |
| 20260506040037 | 78 | 155 | 2.6 | 9.6 | 0.00 | 0.00 | 0.00 | 87 | 1007.5 |
| 20260506035513 | 78 | 132 | 4.3 | 9.6 | 0.00 | 0.00 | 0.00 | 87 | 1007.5 |
| 20260506035013 | 78 | 164 | 2.6 | 8.7 | 0.00 | 0.00 | 0.00 | 87 | 1007.5 |
| 20260506034513 | 78 | 211 | 2.6 | 10.4 | 0.00 | 0.00 | 0.00 | 87 | 1007.4 |
| 20260506034013 | 78 | 182 | 3.5 | 10.4 | 0.00 | 0.00 | 0.00 | 87 | 1007.3 |
| 20260506033512 | 78 | 134 | 4.3 | 9.6 | 0.00 | 0.00 | 0.00 | 87 | 1007.2 |
| 20260506033012 | 78 | 191 | 3.5 | 14.8 | 0.00 | 0.00 | 0.00 | 87 | 1007.2 |
| 20260506032512 | 78 | 145 | 3.5 | 14.8 | 0.00 | 0.00 | 0.00 | 87 | 1007.0 |
| 20260506032012 | 78 | 190 | 3.5 | 13.0 | 0.00 | 0.00 | 0.00 | 87 | 1007.0 |
| 20260506031526 | 78 | 202 | 5.2 | 10.4 | 0.00 | 0.00 | 0.00 | 87 | 1006.9 |
| 20260506031015 | 78 | 214 | 3.5 | 13.9 | 0.00 | 0.00 | 0.00 | 87 | 1007.0 |
| 20260506030511 | 78 | 178 | 2.6 | 13.9 | 0.00 | 0.00 | 0.00 | 87 | 1006.9 |
| 20260506030011 | 78 | 236 | 3.5 | 9.6 | 0.00 | 0.00 | 0.00 | 87 | 1006.8 |
| 20260506025511 | 78 | 108 | 4.3 | 12.2 | 0.00 | 0.00 | 0.00 | 87 | 1006.8 |
| 20260506025013 | 78 | 173 | 3.5 | 12.2 | 0.00 | 0.00 | 0.00 | 87 | 1006.8 |
| 20260506024517 | 78 | 186 | 3.5 | 9.6 | 0.00 | 0.00 | 0.00 | 87 | 1006.7 |
| 20260506024010 | 78 | 166 | 4.3 | 11.3 | 0.00 | 0.00 | 0.00 | 87 | 1006.7 |
| 20260506023510 | 78 | 184 | 5.2 | 11.3 | 0.00 | 0.00 | 0.00 | 87 | 1006.8 |
| 20260506023011 | 78 | 169 | 0.9 | 9.6 | 0.00 | 0.00 | 0.00 | 87 | 1006.7 |
| 20260506022509 | 78 | 179 | 4.3 | 8.7 | 0.00 | 0.00 | 0.00 | 86 | 1006.8 |
| 20260506022009 | 78 | 134 | 3.5 | 8.7 | 0.00 | 0.00 | 0.00 | 86 | 1006.7 |
| 20260506021511 | 78 | 173 | 3.5 | 9.6 | 0.00 | 0.00 | 0.00 | 86 | 1006.5 |
| 20260506021009 | 78 | 196 | 2.6 | 10.4 | 0.00 | 0.00 | 0.00 | 86 | 1006.5 |
| 20260506020512 | 78 | 94 | 4.3 | 13.0 | 0.00 | 0.00 | 0.00 | 86 | 1006.4 |
| 20260506020009 | 78 | 191 | 3.5 | 9.6 | 0.00 | 0.00 | 0.00 | 86 | 1006.4 |
| 20260506015510 | 78 | 183 | 4.3 | 9.6 | 0.00 | 0.00 | 0.00 | 85 | 1006.2 |
| 20260506015008 | 78 | 215 | 2.6 | 8.7 | 0.00 | 0.00 | 0.00 | 85 | 1006.3 |
| 20260506014512 | 78 | 194 | 4.3 | 10.4 | 0.00 | 0.00 | 0.00 | 85 | 1006.3 |
| 20260506014007 | 78 | 138 | 3.5 | 10.4 | 0.00 | 0.00 | 0.00 | 85 | 1006.2 |
| 20260506013512 | 78 | 208 | 3.5 | 14.8 | 0.00 | 0.00 | 0.00 | 85 | 1006.0 |
| 20260506013007 | 78 | 137 | 1.7 | 14.8 | 0.00 | 0.00 | 0.00 | 85 | 1006.0 |
| 20260506012508 | 78 | 196 | 1.7 | 13.0 | 0.00 | 0.00 | 0.00 | 85 | 1005.9 |
| 20260506012009 | 79 | 181 | 3.5 | 13.0 | 0.00 | 0.00 | 0.00 | 85 | 1005.7 |
| 20260506011507 | 79 | 176 | 3.5 | 7.8 | 0.00 | 0.00 | 0.00 | 84 | 1005.7 |
| 20260506011007 | 79 | 179 | 1.7 | 9.6 | 0.00 | 0.00 | 0.00 | 84 | 1005.8 |
| 20260506010507 | 79 | 184 | 4.3 | 9.6 | 0.00 | 0.00 | 0.00 | 84 | 1005.6 |
| 20260506010012 | 79 | 167 | 4.3 | 9.6 | 0.00 | 0.00 | 0.00 | 84 | 1005.7 |
| 20260506005507 | 79 | 159 | 4.3 | 9.6 | 0.00 | 0.00 | 0.00 | 83 | 1005.7 |
| 20260506005009 | 79 | 127 | 5.2 | 9.6 | 0.00 | 0.00 | 0.00 | 83 | 1005.7 |
| 20260506004511 | 79 | 223 | 3.5 | 10.4 | 0.00 | 0.00 | 0.00 | 83 | 1005.6 |
| 20260506004009 | 80 | 214 | 4.3 | 13.9 | 0.00 | 0.00 | 0.00 | 83 | 1005.7 |
| 20260506003507 | 80 | 222 | 4.3 | 13.9 | 0.00 | 0.00 | 0.00 | 82 | 1005.5 |
| 20260506003009 | 80 | 198 | 2.6 | 8.7 | 0.00 | 0.00 | 0.00 | 82 | 1005.5 |
| 20260506002505 | 80 | 201 | 2.6 | 11.3 | 0.00 | 0.00 | 0.00 | 82 | 1005.6 |
| 20260506002005 | 80 | 220 | 5.2 | 12.2 | 0.00 | 0.00 | 0.00 | 81 | 1005.5 |
| 20260506001505 | 80 | 211 | 6.1 | 13.0 | 0.00 | 0.00 | 0.00 | 81 | 1005.3 |
| 20260506001008 | 81 | 153 | 5.2 | 12.2 | 0.00 | 0.00 | 0.00 | 81 | 1005.4 |
| 20260506000505 | 81 | 126 | 4.3 | 12.2 | 0.00 | 0.00 | 0.00 | 80 | 1005.5 |
| 20260506000005 | 81 | 141 | 3.5 | 13.0 | 0.00 | 0.00 | 0.00 | 80 | 1005.4 |
| 20260505235504 | 81 | 171 | 5.2 | 13.9 | 0.00 | 0.00 | 0.00 | 79 | 1005.4 |
| 20260505235004 | 81 | 200 | 5.2 | 13.9 | 0.00 | 0.00 | 0.00 | 79 | 1005.3 |
| 20260505234504 | 82 | 169 | 2.6 | 11.3 | 0.00 | 0.00 | 0.00 | 78 | 1005.3 |
| 20260505234004 | 82 | 182 | 5.2 | 12.2 | 0.00 | 0.00 | 0.00 | 78 | 1005.5 |
| 20260505233504 | 82 | 141 | 6.1 | 13.9 | 0.00 | 0.00 | 0.00 | 78 | 1005.4 |
| 20260505233003 | 82 | 188 | 5.2 | 13.9 | 0.00 | 0.00 | 0.00 | 77 | 1005.2 |
| 20260505232507 | 82 | 198 | 5.2 | 11.3 | 0.00 | 0.00 | 0.00 | 77 | 1005.1 |
| 20260505232003 | 82 | 184 | 5.2 | 13.9 | 0.00 | 0.00 | 0.00 | 77 | 1005.1 |
| 20260505231503 | 83 | 134 | 5.2 | 13.9 | 0.00 | 0.00 | 0.00 | 76 | 1005.4 |
| 20260505231002 | 82 | 207 | 6.1 | 13.0 | 0.00 | 0.00 | 0.00 | 76 | 1005.3 |
| 20260505230502 | 83 | 174 | 5.2 | 13.0 | 0.00 | 0.00 | 0.00 | 76 | 1005.2 |
| 20260505230003 | 83 | 168 | 6.1 | 14.8 | 0.00 | 0.00 | 0.00 | 76 | 1005.2 |
| 20260505225505 | 83 | 173 | 7.0 | 14.8 | 0.00 | 0.00 | 0.00 | 75 | 1005.2 |
| 20260505225102 | 84 | 170 | 5.2 | 14.8 | 0.00 | 0.00 | 0.00 | 75 | 1005.2 |
| 20260505224501 | 84 | 164 | 4.3 | 17.4 | 0.00 | 0.00 | 0.00 | 75 | 1005.3 |
| 20260505224001 | 84 | 178 | 7.8 | 17.4 | 0.00 | 0.00 | 0.00 | 74 | 1005.2 |
| 20260505223503 | 84 | 200 | 5.2 | 14.8 | 0.00 | 0.00 | 0.00 | 73 | 1005.2 |
| 20260505223002 | 84 | 173 | 5.2 | 14.8 | 0.00 | 0.00 | 0.00 | 73 | 1005.2 |
| 20260505222600 | 85 | 182 | 6.1 | 15.6 | 0.00 | 0.00 | 0.00 | 72 | 1005.4 |
| 20260505222100 | 85 | 165 | 6.1 | 15.6 | 0.00 | 0.00 | 0.00 | 71 | 1005.3 |
| 20260505221600 | 85 | 173 | 4.3 | 10.4 | 0.00 | 0.00 | 0.00 | 71 | 1005.2 |
| 20260505221059 | 86 | 182 | 5.2 | 13.0 | 0.00 | 0.00 | 0.00 | 70 | 1005.3 |
| 20260505220559 | 86 | 196 | 4.3 | 15.6 | 0.00 | 0.00 | 0.00 | 71 | 1005.4 |
| 20260505220058 | 85 | 170 | 4.3 | 15.6 | 0.00 | 0.00 | 0.00 | 71 | 1005.5 |
| 20260505215558 | 85 | 126 | 5.2 | 13.0 | 0.00 | 0.00 | 0.00 | 71 | 1005.5 |
| 20260505215058 | 85 | 130 | 4.3 | 17.4 | 0.00 | 0.00 | 0.00 | 71 | 1005.4 |
| 20260505214600 | 85 | 198 | 4.3 | 17.4 | 0.00 | 0.00 | 0.00 | 71 | 1005.4 |
| 20260505214057 | 85 | 209 | 4.3 | 15.6 | 0.00 | 0.00 | 0.00 | 71 | 1005.6 |
| 20260505213556 | 85 | 144 | 4.3 | 15.6 | 0.00 | 0.00 | 0.00 | 71 | 1005.7 |
| 20260505213056 | 86 | 202 | 5.2 | 12.2 | 0.00 | 0.00 | 0.00 | 69 | 1005.8 |
| 20260505212556 | 86 | 180 | 5.2 | 17.4 | 0.00 | 0.00 | 0.00 | 69 | 1005.8 |
| 20260505212056 | 86 | 199 | 7.8 | 17.4 | 0.00 | 0.00 | 0.00 | 69 | 1005.9 |
| 20260505211609 | 86 | 192 | 4.3 | 11.3 | 0.00 | 0.00 | 0.00 | 70 | 1006.0 |
| 20260505211056 | 86 | 167 | 5.2 | 15.6 | 0.00 | 0.00 | 0.00 | 70 | 1005.9 |
| 20260505210555 | 86 | 171 | 6.1 | 15.6 | 0.00 | 0.00 | 0.00 | 70 | 1005.9 |
| 20260505210057 | 86 | 140 | 3.5 | 15.6 | 0.00 | 0.00 | 0.00 | 71 | 1005.9 |
| 20260505205554 | 85 | 173 | 7.0 | 15.6 | 0.00 | 0.00 | 0.00 | 71 | 1006.0 |
| 20260505205055 | 85 | 148 | 6.1 | 13.9 | 0.00 | 0.00 | 0.00 | 71 | 1006.2 |
| 20260505204553 | 85 | 163 | 4.3 | 13.9 | 0.00 | 0.00 | 0.00 | 70 | 1006.3 |
| 20260505204051 | 86 | 215 | 6.1 | 11.3 | 0.00 | 0.00 | 0.00 | 70 | 1006.4 |
| 20260505203650 | 86 | 219 | 4.3 | 11.3 | 0.00 | 0.00 | 0.00 | 71 | 1006.4 |
| 20260505203052 | 86 | 160 | 4.3 | 11.3 | 0.00 | 0.00 | 0.00 | 70 | 1006.5 |
| 20260505202549 | 86 | 233 | 5.2 | 10.4 | 0.00 | 0.00 | 0.00 | 71 | 1006.7 |
| 20260505202052 | 86 | 155 | 5.2 | 9.6 | 0.00 | 0.00 | 0.00 | 70 | 1006.8 |
| 20260505201556 | 86 | 186 | 4.3 | 12.2 | 0.00 | 0.00 | 0.00 | 70 | 1006.8 |
| 20260505201048 | 85 | 204 | 3.5 | 15.6 | 0.00 | 0.00 | 0.00 | 71 | 1006.8 |
| 20260505200548 | 85 | 217 | 3.5 | 15.6 | 0.00 | 0.00 | 0.00 | 71 | 1006.9 |
| 20260505200050 | 86 | 150 | 3.5 | 9.6 | 0.00 | 0.00 | 0.00 | 70 | 1007.1 |
| 20260505195547 | 86 | 224 | 3.5 | 10.4 | 0.00 | 0.00 | 0.00 | 70 | 1007.1 |
| 20260505195047 | 86 | 179 | 3.5 | 11.3 | 0.00 | 0.00 | 0.00 | 71 | 1007.0 |
| 20260505194605 | 85 | 198 | 4.3 | 15.6 | 0.00 | 0.00 | 0.00 | 71 | 1006.9 |
| 20260505194046 | 86 | 186 | 5.2 | 14.8 | 0.00 | 0.00 | 0.00 | 71 | 1007.0 |
| 20260505193547 | 86 | 183 | 3.5 | 13.9 | 0.00 | 0.00 | 0.00 | 72 | 1007.0 |
| 20260505193045 | 85 | 151 | 5.2 | 13.9 | 0.00 | 0.00 | 0.00 | 72 | 1007.1 |
| 20260505192544 | 85 | 210 | 4.3 | 12.2 | 0.00 | 0.00 | 0.00 | 71 | 1007.1 |
| 20260505192044 | 85 | 176 | 5.2 | 14.8 | 0.00 | 0.00 | 0.00 | 71 | 1007.1 |
| 20260505191545 | 86 | 176 | 4.3 | 14.8 | 0.00 | 0.00 | 0.00 | 70 | 1007.0 |